Retour au catalogue

QIANFAN-144

ActifCommunicationsPO
NORAD 69090·PAYLOAD·🇨🇳 China

Lancé May 12, 2026 depuis Taiyuan Satellite Launch Center

Loading…

Prochains Passages (prochaines 24 heures)

TLE

FraisSource: Space-Track

Époque: Sep 14, 2026, 21:29 UTC

1 69090U 26104T   26257.89522376  .00000112  00000-0  15458-3 0  9991
2 69090  88.9912 332.3107 0002521 106.2679 253.8750 13.51031027 17273

Suivez QIANFAN-144 en temps réel avec AllMySat

Download on the App Store